sat.trackr.live / text

‹ back to catalog

STARLINK-11153 [DTC]

NORAD 60067 · 2024-113J

PAYLOAD ACTIVE UNKNOWN

§ Identity

Operator
Country
US
Launch date
2024-06-19
Launch site
AFWTR
Launch vehicle
Mass (kg)
RCS (m²)

Purposes: comms

External: N2YO · Heavens-Above · Gunter

§ Orbital elements

Epoch: 2026-09-21T09:31:38.506080Z

Period
91.74 min
Inclination
53.1594°
Eccentricity
0.0001242
Mean motion
15.69699004 rev/d
Perigee alt
358.9 km
Apogee alt
360.6 km
Semi-major
6,737.9 km
B*
5.6610e-6
RAAN
306.8541°
Arg perigee
89.0308°
Mean anomaly
271.0852°
Rev number
13,029

§ Raw data

STARLINK-11153 [DTC]1 60067U 24113J   26264.39697345  .00000097  00000+0  56610-5 0  99942 60067  53.1594 306.8541 0001242  89.0308 271.0852 15.69699004130291

JSON: /api/v1/satellites/60067 · /tle

For live sub-satellite position, see the globe view (requires WebGL).

§ Visibility from observer

Set your observer location to see the next 7 days of passes ≥ 10°. The values pass through the URL so the page stays shareable.

No JS? Fill the form by hand. The geolocation button needs JavaScript.